,,Stat5,,Stat1,,Stat2,,Stat3,,Stat4,,Wind1,,Wind1,
time,status,PA1M_AVG,status,PR1M_SUM,status,RH1M_AVG,status,SR1M_AVG,status,TA1M_AVG,status,W1dAve1m,status,W1sAve1m,
2001-12-28, 00:00:01,VALID,920.873,VALID,0,VALID,98.1335,VALID,-0.118866,VALID,19.6848,VALID,242,VALID,0,
2001-12-28, 00:01:00,VALID,920.873,VALID,0,VALID,98.1755,VALID,-0.101885,VALID,19.6878,VALID,242,VALID,0,
2001-12-28, 00:02:00,VALID,920.865,VALID,0,VALID,98.2035,VALID,-0.101885,VALID,19.6846,VALID,268,VALID,0,
2001-12-28, 00:03:00,VALID,920.845,VALID,0,VALID,98.2505,VALID,-0.118866,VALID,19.6841,VALID,277,VALID,0,
2001-12-28, 00:04:00,VALID,920.817,VALID,0,VALID,98.3014,VALID,-0.101885,VALID,19.6948,VALID,277,VALID,0,
2001-12-28, 00:05:00,VALID,920.815,VALID,0,VALID,98.3332,VALID,-0.118866,VALID,19.694,VALID,277,VALID,0,
2001-12-28, 00:06:00,VALID,920.79,VALID,0,VALID,98.3675,VALID,-0.0509425,VALID,19.7102,VALID,277,VALID,0,
2001-12-28, 00:07:00,VALID,920.77,VALID,0,VALID,98.4057,VALID,0,VALID,19.7258,VALID,277,VALID,0,
2001-12-28, 00:08:00,VALID,920.757,VALID,0,VALID,98.426,VALID,0,VALID,19.7186,VALID,277,VALID,0,
2001-12-28, 00:09:00,VALID,920.749,VALID,0,VALID,98.4731,VALID,0.0169808,VALID,19.741,VALID,277,VALID,0,
2001-12-28, 00:10:00,VALID,920.725,VALID,0,VALID,98.4667,VALID,0,VALID,19.7382,VALID,277,VALID,0,
2001-12-28, 00:11:00,VALID,920.717,VALID,0,VALID,98.4311,VALID,0,VALID,19.7218,VALID,277,VALID,0.0102796,
2001-12-28, 00:12:00,VALID,920.733,VALID,0,VALID,98.3764,VALID,-0.0169808,VALID,19.6898,VALID,253,VALID,0.249789,
2001-12-28, 00:13:00,VALID,920.722,VALID,0,VALID,98.3866,VALID,0,VALID,19.6702,VALID,234,VALID,0.253689,
2001-12-28, 00:14:00,VALID,920.724,VALID,0,VALID,98.4095,VALID,0,VALID,19.6672,VALID,234,VALID,0.115451,
2001-12-28, 00:15:00,VALID,920.697,VALID,0,VALID,98.4336,VALID,0,VALID,19.6642,VALID,234,VALID,0.0323933,
2001-12-28, 00:16:00,VALID,920.682,VALID,0,VALID,98.4565,VALID,-0.0339617,VALID,19.6642,VALID,234,VALID,0,
2001-12-28, 00:17:00,VALID,920.657,VALID,0,VALID,98.4883,VALID,-0.0169808,VALID,19.6647,VALID,234,VALID,0,
2001-12-28, 00:18:00,VALID,920.638,VALID,0,VALID,98.5341,VALID,0,VALID,19.6607,VALID,234,VALID,0,
2001-12-28, 00:19:00,VALID,920.627,VALID,0,VALID,98.6015,VALID,-0.0169808,VALID,19.6736,VALID,234,VALID,0,
2001-12-28, 00:20:00,VALID,920.611,VALID,0,VALID,98.5748,VALID,0,VALID,19.6769,VALID,234,VALID,0,
2001-12-28, 00:21:00,VALID,920.608,VALID,0,VALID,98.5303,VALID,0,VALID,19.6543,VALID,234,VALID,0,
2001-12-28, 00:22:00,VALID,920.602,VALID,0,VALID,98.4985,VALID,0,VALID,19.6252,VALID,234,VALID,0.0679253,
2001-12-28, 00:23:00,VALID,920.597,VALID,0,VALID,98.4858,VALID,-0.0339617,VALID,19.5964,VALID,234,VALID,0,
2001-12-28, 00:24:00,VALID,920.593,VALID,0,VALID,98.5239,VALID,0,VALID,19.5832,VALID,236,VALID,0.000669643,
2001-12-28, 00:25:00,VALID,920.574,VALID,0,VALID,98.5888,VALID,-0.0169808,VALID,19.5991,VALID,343,VALID,0.292558,
2001-12-28, 00:26:00,VALID,920.584,VALID,0,VALID,98.5761,VALID,0,VALID,19.6058,VALID,11,VALID,0.575802,
2001-12-28, 00:27:00,VALID,920.56,VALID,0,VALID,98.5557,VALID,0,VALID,19.5867,VALID,12,VALID,0.60588,
2001-12-28, 00:28:00,VALID,920.551,VALID,0,VALID,98.5328,VALID,-0.0339617,VALID,19.5636,VALID,12,VALID,0.577069,
2001-12-28, 00:29:00,VALID,920.539,VALID,0,VALID,98.5036,VALID,-0.0339617,VALID,19.5477,VALID,14,VALID,0.531836,
2001-12-28, 00:30:00,VALID,920.512,VALID,0,VALID,98.5023,VALID,-0.0169808,VALID,19.5447,VALID,16,VALID,0.381168,
2001-12-28, 00:31:00,VALID,920.484,VALID,0,VALID,98.5214,VALID,0,VALID,19.532,VALID,16,VALID,0.156684,
2001-12-28, 00:32:00,VALID,920.471,VALID,0,VALID,98.515,VALID,-0.0339617,VALID,19.5188,VALID,16,VALID,0.000844595,
2001-12-28, 00:33:00,VALID,920.467,VALID,0,VALID,98.5455,VALID,-0.0339617,VALID,19.5191,VALID,16,VALID,0.0289274,
2001-12-28, 00:34:00,VALID,920.453,VALID,0,VALID,98.5239,VALID,0,VALID,19.5091,VALID,351,VALID,0.170956,
2001-12-28, 00:35:00,VALID,920.449,VALID,0,VALID,98.5303,VALID,-0.0169808,VALID,19.493,VALID,297,VALID,0,
2001-12-28, 00:36:00,VALID,920.452,VALID,0,VALID,98.5494,VALID,-0.0169808,VALID,19.4967,VALID,28,VALID,0,
2001-12-28, 00:37:00,VALID,920.479,VALID,0,VALID,98.557,VALID,-0.0169808,VALID,19.4967,VALID,62,VALID,0,
2001-12-28, 00:38:00,VALID,920.498,VALID,0,VALID,98.5506,VALID,0.0169808,VALID,19.4865,VALID,67,VALID,0.0102796,
2001-12-28, 00:39:00,VALID,920.496,VALID,0,VALID,98.5646,VALID,-0.0339617,VALID,19.4741,VALID,57,VALID,0.399219,
2001-12-28, 00:40:00,VALID,920.516,VALID,0,VALID,98.5735,VALID,0,VALID,19.4803,VALID,23,VALID,0.518914,
2001-12-28, 00:41:00,VALID,920.525,VALID,0,VALID,98.5862,VALID,-0.0509425,VALID,19.4835,VALID,18,VALID,0.35773,
2001-12-28, 00:42:00,VALID,920.535,VALID,0,VALID,98.5672,VALID,-0.0169808,VALID,19.4736,VALID,18,VALID,0.0996622,
2001-12-28, 00:43:00,VALID,920.542,VALID,0,VALID,98.5532,VALID,0,VALID,19.4736,VALID,18,VALID,0.063151,
2001-12-28, 00:44:00,VALID,920.543,VALID,0,VALID,98.5646,VALID,0,VALID,19.4734,VALID,18,VALID,0.0572917,
2001-12-28, 00:45:00,VALID,920.539,VALID,0,VALID,98.5748,VALID,0,VALID,19.4704,VALID,18,VALID,0,
2001-12-28, 00:46:00,VALID,920.523,VALID,0,VALID,98.585,VALID,-0.0339617,VALID,19.487,VALID,18,VALID,0,
2001-12-28, 00:47:00,VALID,920.497,VALID,0,VALID,98.5964,VALID,-0.0339617,VALID,19.4868,VALID,18,VALID,0,
2001-12-28, 00:48:00,VALID,920.464,VALID,0,VALID,98.6193,VALID,0,VALID,19.4967,VALID,18,VALID,0,
2001-12-28, 00:49:00,VALID,920.429,VALID,0,VALID,98.6295,VALID,-0.0169808,VALID,19.5226,VALID,18,VALID,0,
2001-12-28, 00:50:00,VALID,920.387,VALID,0,VALID,98.6002,VALID,-0.0169808,VALID,19.5124,VALID,17,VALID,0,
2001-12-28, 00:51:00,VALID,920.372,VALID,0,VALID,98.5951,VALID,0,VALID,19.5129,VALID,232,VALID,0.18935,
2001-12-28, 00:52:00,VALID,920.357,VALID,0,VALID,98.5888,VALID,-0.0339617,VALID,19.5094,VALID,227,VALID,0.364149,
2001-12-28, 00:53:00,VALID,920.339,VALID,0,VALID,98.5913,VALID,-0.0169808,VALID,19.5158,VALID,161,VALID,0.386824,
2001-12-28, 00:54:00,VALID,920.326,VALID,0,VALID,98.5951,VALID,-0.0169808,VALID,19.5059,VALID,154,VALID,0.129018,
2001-12-28, 00:55:00,VALID,920.305,VALID,0,VALID,98.6078,VALID,0,VALID,19.4995,VALID,141,VALID,0.125617,
2001-12-28, 00:56:00,VALID,920.305,VALID,0,VALID,98.5799,VALID,-0.0169808,VALID,19.4962,VALID,153,VALID,0.303209,
2001-12-28, 00:57:00,VALID,920.311,VALID,0,VALID,98.5659,VALID,-0.0339617,VALID,19.4902,VALID,174,VALID,0.452097,
2001-12-28, 00:58:00,VALID,920.32,VALID,0,VALID,98.5455,VALID,0,VALID,19.4736,VALID,167,VALID,0.565667,
2001-12-28, 00:59:00,VALID,920.319,VALID,0,VALID,98.5379,VALID,-0.0169808,VALID,19.4644,VALID,189,VALID,0.396875,
2001-12-28, 01:00:00,VALID,920.312,VALID,0,VALID,98.5494,VALID,-0.0509425,VALID,19.4413,VALID,185,VALID,0.00555099,
2001-12-28, 01:01:00,VALID,920.294,VALID,0,VALID,98.5735,VALID,-0.0169808,VALID,19.4416,VALID,185,VALID,0.211372,
2001-12-28, 01:02:01,VALID,920.287,VALID,0,VALID,98.6002,VALID,-0.0679233,VALID,19.4607,VALID,273,VALID,0.453547,
2001-12-28, 01:03:00,VALID,920.285,VALID,0,VALID,98.5977,VALID,0,VALID,19.4709,VALID,353,VALID,0.691301,
2001-12-28, 01:04:00,VALID,920.27,VALID,0,VALID,98.5621,VALID,-0.0339617,VALID,19.4475,VALID,355,VALID,0.473805,
2001-12-28, 01:05:00,VALID,920.271,VALID,0,VALID,98.5926,VALID,-0.0169808,VALID,19.451,VALID,7,VALID,0.436523,
2001-12-28, 01:06:00,VALID,920.274,VALID,0,VALID,98.618,VALID,-0.0169808,VALID,19.4612,VALID,12,VALID,0.441306,
2001-12-28, 01:07:00,VALID,920.269,VALID,0,VALID,98.6396,VALID,-0.0509425,VALID,19.4843,VALID,12,VALID,0.472862,
2001-12-28, 01:08:00,VALID,920.276,VALID,0,VALID,98.6078,VALID,-0.0679233,VALID,19.4711,VALID,12,VALID,0.323808,
2001-12-28, 01:09:00,VALID,920.301,VALID,0,VALID,98.6396,VALID,-0.0679233,VALID,19.4746,VALID,12,VALID,0.373047,
2001-12-28, 01:10:00,VALID,920.307,VALID,0,VALID,98.6447,VALID,-0.0679233,VALID,19.484,VALID,12,VALID,0.0863487,
2001-12-28, 01:11:00,VALID,920.322,VALID,0,VALID,98.6651,VALID,-0.0169808,VALID,19.497,VALID,12,VALID,0,
2001-12-28, 01:12:00,VALID,920.323,VALID,0,VALID,98.6371,VALID,-0.0509425,VALID,19.4935,VALID,12,VALID,0,
2001-12-28, 01:13:00,VALID,920.309,VALID,0,VALID,98.646,VALID,-0.0509425,VALID,19.497,VALID,12,VALID,0.200304,
2001-12-28, 01:14:00,VALID,920.295,VALID,0,VALID,98.6498,VALID,-0.0509425,VALID,19.5163,VALID,12,VALID,0.0104167,
2001-12-28, 01:15:01,VALID,920.278,VALID,0,VALID,98.6244,VALID,-0.0509425,VALID,19.5066,VALID,12,VALID,0.0758384,
2001-12-28, 01:16:00,VALID,920.269,VALID,0,VALID,98.5977,VALID,-0.0339617,VALID,19.5034,VALID,13,VALID,0.105574,
2001-12-28, 01:17:01,VALID,920.261,VALID,0,VALID,98.5557,VALID,-0.0679233,VALID,19.4808,VALID,9,VALID,0.15605,
2001-12-28, 01:18:00,VALID,920.261,VALID,0,VALID,98.5506,VALID,-0.0339617,VALID,19.4808,VALID,10,VALID,0.00637336,
2001-12-28, 01:19:01,VALID,920.263,VALID,0,VALID,98.5583,VALID,-0.0339617,VALID,19.4875,VALID,10,VALID,0.0672637,
2001-12-28, 01:20:01,VALID,920.272,VALID,0,VALID,98.5926,VALID,0,VALID,19.5034,VALID,12,VALID,0.2831,
2001-12-28, 01:21:00,VALID,920.276,VALID,0,VALID,98.5875,VALID,-0.0849042,VALID,19.5032,VALID,22,VALID,0.945929,
2001-12-28, 01:22:01,VALID,920.277,VALID,0,VALID,98.6231,VALID,-0.0169808,VALID,19.5228,VALID,20,VALID,0.863715,
2001-12-28, 01:23:00,VALID,920.274,VALID,0,VALID,98.6485,VALID,-0.0679233,VALID,19.5352,VALID,26,VALID,0.823269,
2001-12-28, 01:24:00,VALID,920.279,VALID,0,VALID,98.6231,VALID,-0.0509425,VALID,19.5389,VALID,24,VALID,0.578795,
2001-12-28, 01:25:00,VALID,920.263,VALID,0,VALID,98.618,VALID,-0.0509425,VALID,19.5392,VALID,24,VALID,0.502673,
2001-12-28, 01:26:00,VALID,920.251,VALID,0,VALID,98.6587,VALID,-0.0169808,VALID,19.5581,VALID,27,VALID,0.584671,
2001-12-28, 01:27:01,VALID,920.227,VALID,0,VALID,98.6702,VALID,0,VALID,19.5809,VALID,28,VALID,0.602385,
2001-12-28, 01:28:00,VALID,920.198,VALID,0,VALID,98.6969,VALID,-0.0339617,VALID,19.5939,VALID,25,VALID,0.785473,
2001-12-28, 01:29:00,VALID,920.161,VALID,0,VALID,98.6994,VALID,-0.0509425,VALID,19.6167,VALID,28,VALID,0.860742,
2001-12-28, 01:30:00,VALID,920.132,VALID,0,VALID,98.6956,VALID,-0.0679233,VALID,19.6336,VALID,30,VALID,0.649877,
2001-12-28, 01:31:00,VALID,920.112,VALID,0,VALID,98.7274,VALID,-0.0679233,VALID,19.6488,VALID,31,VALID,0.0855035,
2001-12-28, 01:32:01,VALID,920.083,VALID,0,VALID,98.6791,VALID,0,VALID,19.6388,VALID,32,VALID,0,
2001-12-28, 01:33:00,VALID,920.043,VALID,0,VALID,98.6117,VALID,0,VALID,19.6065,VALID,31,VALID,0.00105574,
2001-12-28, 01:34:00,VALID,920,VALID,0,VALID,98.5913,VALID,-0.0509425,VALID,19.6006,VALID,31,VALID,0.223346,
2001-12-28, 01:35:00,VALID,919.965,VALID,0,VALID,98.5951,VALID,-0.0509425,VALID,19.5936,VALID,31,VALID,0.0177734,
2001-12-28, 01:36:00,VALID,919.942,VALID,0,VALID,98.6028,VALID,-0.0339617,VALID,19.6033,VALID,31,VALID,0.375601,
2001-12-28, 01:37:00,VALID,919.949,VALID,0,VALID,98.6193,VALID,-0.0339617,VALID,19.6031,VALID,30,VALID,0.392681,
2001-12-28, 01:38:00,VALID,919.962,VALID,0,VALID,98.6142,VALID,-0.0169808,VALID,19.61,VALID,31,VALID,0.345189,
2001-12-28, 01:39:00,VALID,919.986,VALID,0,VALID,98.6155,VALID,-0.0339617,VALID,19.6135,VALID,31,VALID,0.115625,
2001-12-28, 01:40:00,VALID,920.01,VALID,0,VALID,98.5519,VALID,-0.0509425,VALID,19.5906,VALID,31,VALID,0.00123355,
2001-12-28, 01:41:00,VALID,920.031,VALID,0,VALID,98.5888,VALID,-0.0339617,VALID,19.5874,VALID,31,VALID,0,
2001-12-28, 01:42:00,VALID,920.054,VALID,0,VALID,98.5926,VALID,-0.0509425,VALID,19.5872,VALID,31,VALID,0.260557,
2001-12-28, 01:43:00,VALID,920.06,VALID,0,VALID,98.5837,VALID,-0.0849042,VALID,19.5775,VALID,29,VALID,0.571181,
2001-12-28, 01:44:00,VALID,920.078,VALID,0,VALID,98.5468,VALID,-0.0339617,VALID,19.5645,VALID,22,VALID,0.6875,
2001-12-28, 01:45:01,VALID,920.085,VALID,0,VALID,98.543,VALID,-0.0339617,VALID,19.5621,VALID,15,VALID,0.7883,
2001-12-28, 01:46:00,VALID,920.118,VALID,0,VALID,98.4921,VALID,-0.0849042,VALID,19.5325,VALID,350,VALID,1.00211,
2001-12-28, 01:47:01,VALID,920.125,VALID,0,VALID,98.4209,VALID,-0.0339617,VALID,19.4972,VALID,5,VALID,1.15029,
2001-12-28, 01:48:00,VALID,920.132,VALID,0,VALID,98.454,VALID,-0.0339617,VALID,19.4711,VALID,357,VALID,0.826275,
2001-12-28, 01:49:01,VALID,920.134,VALID,0,VALID,98.4731,VALID,-0.0509425,VALID,19.4647,VALID,355,VALID,0.534299,
2001-12-28, 01:50:01,VALID,920.137,VALID,0,VALID,98.5137,VALID,-0.0679233,VALID,19.448,VALID,9,VALID,0.465049,
2001-12-28, 01:51:00,VALID,920.136,VALID,0,VALID,98.5633,VALID,-0.0339617,VALID,19.4577,VALID,16,VALID,0.563528,
2001-12-28, 01:52:01,VALID,920.123,VALID,0,VALID,98.5875,VALID,0.0339617,VALID,19.4468,VALID,28,VALID,0.172092,
2001-12-28, 01:53:00,VALID,920.114,VALID,0,VALID,98.6447,VALID,0.0509425,VALID,19.4734,VALID,32,VALID,0.393792,
2001-12-28, 01:54:00,VALID,920.11,VALID,0,VALID,98.6587,VALID,0.0169808,VALID,19.4761,VALID,343,VALID,0.354018,
2001-12-28, 01:55:00,VALID,920.116,VALID,0,VALID,98.6536,VALID,0.0679233,VALID,19.4602,VALID,338,VALID,0.146176,
2001-12-28, 01:56:00,VALID,920.132,VALID,0,VALID,98.6218,VALID,0.0679233,VALID,19.4505,VALID,338,VALID,0.350507,
2001-12-28, 01:57:01,VALID,920.146,VALID,0,VALID,98.618,VALID,0,VALID,19.4274,VALID,348,VALID,0.46361,
2001-12-28, 01:58:00,VALID,920.149,VALID,0,VALID,98.6193,VALID,0.0169808,VALID,19.4244,VALID,2,VALID,0.616132,
2001-12-28, 01:59:00,VALID,920.141,VALID,0,VALID,98.6333,VALID,0.0339617,VALID,19.4341,VALID,14,VALID,0.683789,
2001-12-28, 02:00:00,VALID,920.149,VALID,0,VALID,98.707,VALID,0.0849042,VALID,19.4503,VALID,20,VALID,0.580387,
2001-12-28, 02:01:00,VALID,920.165,VALID,0,VALID,98.7248,VALID,0.0679233,VALID,19.4791,VALID,18,VALID,0.398872,
2001-12-28, 02:02:01,VALID,920.192,VALID,0,VALID,98.6524,VALID,0.0509425,VALID,19.489,VALID,20,VALID,0.539696,
2001-12-28, 02:03:00,VALID,920.185,VALID,0,VALID,98.6409,VALID,0,VALID,19.4736,VALID,30,VALID,0.507179,
2001-12-28, 02:04:00,VALID,920.193,VALID,0,VALID,98.6333,VALID,0.0509425,VALID,19.4731,VALID,36,VALID,0.622472,
2001-12-28, 02:05:00,VALID,920.173,VALID,0,VALID,98.5913,VALID,0.0509425,VALID,19.4634,VALID,25,VALID,1.00273,
2001-12-28, 02:06:00,VALID,920.181,VALID,0,VALID,98.5506,VALID,0,VALID,19.454,VALID,23,VALID,0.715345,
2001-12-28, 02:07:00,VALID,920.188,VALID,0,VALID,98.5468,VALID,-0.0339617,VALID,19.4508,VALID,14,VALID,0.618832,
2001-12-28, 02:08:00,VALID,920.183,VALID,0,VALID,98.4718,VALID,0,VALID,19.4356,VALID,25,VALID,0.83162,
2001-12-28, 02:09:00,VALID,920.175,VALID,0,VALID,98.4514,VALID,-0.0339617,VALID,19.4453,VALID,19,VALID,0.742969,
2001-12-28, 02:10:00,VALID,920.166,VALID,0,VALID,98.3561,VALID,-0.0679233,VALID,19.4391,VALID,8,VALID,0.978002,
2001-12-28, 02:11:00,VALID,920.161,VALID,0,VALID,98.2938,VALID,-0.0169808,VALID,19.4358,VALID,24,VALID,0.931743,
2001-12-28, 02:12:00,VALID,920.13,VALID,0,VALID,98.2098,VALID,-0.0679233,VALID,19.4547,VALID,13,VALID,0.925887,
2001-12-28, 02:13:00,VALID,920.124,VALID,0,VALID,98.1005,VALID,0,VALID,19.4676,VALID,22,VALID,0.595703,
2001-12-28, 02:14:00,VALID,920.107,VALID,0,VALID,98.0064,VALID,-0.0339617,VALID,19.4873,VALID,16,VALID,0.428819,
2001-12-28, 02:15:01,VALID,920.108,VALID,0,VALID,97.7724,VALID,-0.0169808,VALID,19.4679,VALID,25,VALID,0.657012,
2001-12-28, 02:16:00,VALID,920.1,VALID,0,VALID,97.5893,VALID,-0.0169808,VALID,19.4614,VALID,42,VALID,0.501056,
2001-12-28, 02:17:01,VALID,920.099,VALID,0,VALID,97.4278,VALID,-0.0169808,VALID,19.4614,VALID,35,VALID,0.373355,
2001-12-28, 02:18:00,VALID,920.081,VALID,0,VALID,97.2205,VALID,0,VALID,19.445,VALID,36,VALID,0.213816,
2001-12-28, 02:19:01,VALID,920.073,VALID,0,VALID,97.1048,VALID,0,VALID,19.4453,VALID,36,VALID,0.00724085,
2001-12-28, 02:20:01,VALID,920.076,VALID,0,VALID,97.0183,VALID,-0.0339617,VALID,19.4448,VALID,36,VALID,0.0417352,
2001-12-28, 02:21:01,VALID,920.084,VALID,0,VALID,96.9128,VALID,-0.0679233,VALID,19.4587,VALID,36,VALID,0,
2001-12-28, 02:22:01,VALID,920.072,VALID,0,VALID,96.8505,VALID,-0.101885,VALID,19.4691,VALID,36,VALID,0,
2001-12-28, 02:23:00,VALID,920.069,VALID,0,VALID,96.9268,VALID,-0.135847,VALID,19.492,VALID,36,VALID,0.0380068,
2001-12-28, 02:24:00,VALID,920.053,VALID,0,VALID,96.9128,VALID,-0.152827,VALID,19.5081,VALID,36,VALID,0.122098,
2001-12-28, 02:25:01,VALID,920.052,VALID,0,VALID,96.7882,VALID,-0.152827,VALID,19.5146,VALID,36,VALID,0.245477,
2001-12-28, 02:26:00,VALID,920.054,VALID,0,VALID,96.6598,VALID,-0.101885,VALID,19.5111,VALID,36,VALID,0.300465,
2001-12-28, 02:27:01,VALID,920.04,VALID,0,VALID,96.5326,VALID,-0.135847,VALID,19.5181,VALID,38,VALID,0.429276,
2001-12-28, 02:28:00,VALID,920.04,VALID,0,VALID,96.3902,VALID,-0.118866,VALID,19.4945,VALID,41,VALID,0.44848,
2001-12-28, 02:29:00,VALID,920.045,VALID,0,VALID,96.3698,VALID,-0.118866,VALID,19.4952,VALID,37,VALID,0.260156,
2001-12-28, 02:30:01,VALID,920.044,VALID,0,VALID,96.3686,VALID,-0.118866,VALID,19.5017,VALID,33,VALID,0.000822368,
2001-12-28, 02:31:01,VALID,920.038,VALID,0,VALID,96.2821,VALID,-0.135847,VALID,19.4855,VALID,33,VALID,0.146484,
2001-12-28, 02:32:01,VALID,920.042,VALID,0,VALID,96.2363,VALID,-0.118866,VALID,19.4917,VALID,38,VALID,0.334882,
2001-12-28, 02:33:01,VALID,920.032,VALID,0.2,VALID,96.3075,VALID,-0.101885,VALID,19.4915,VALID,42,VALID,0.339949,
2001-12-28, 02:34:01,VALID,920.047,VALID,0,VALID,96.1842,VALID,-0.135847,VALID,19.5014,VALID,42,VALID,0.225414,
2001-12-28, 02:35:01,VALID,920.048,VALID,0,VALID,96.1397,VALID,-0.118866,VALID,19.5019,VALID,57,VALID,0.355078,
2001-12-28, 02:36:00,VALID,920.054,VALID,0,VALID,96.0443,VALID,-0.0849042,VALID,19.491,VALID,91,VALID,0.390825,
2001-12-28, 02:37:01,VALID,920.058,VALID,0,VALID,96.057,VALID,-0.0169808,VALID,19.4808,VALID,129,VALID,0.554688,
2001-12-28, 02:38:01,VALID,920.065,VALID,0,VALID,96.1015,VALID,-0.0169808,VALID,19.4642,VALID,132,VALID,0.461965,
2001-12-28, 02:39:00,VALID,920.082,VALID,0,VALID,96.2477,VALID,-0.0169808,VALID,19.4607,VALID,137,VALID,0.459375,
2001-12-28, 02:40:01,VALID,920.085,VALID,0.2,VALID,96.3965,VALID,0,VALID,19.4806,VALID,149,VALID,0.397821,
2001-12-28, 02:41:01,VALID,920.088,VALID,0,VALID,96.4614,VALID,-0.0169808,VALID,19.4875,VALID,154,VALID,0.443257,
2001-12-28, 02:42:01,VALID,920.103,VALID,0,VALID,96.5491,VALID,-0.0169808,VALID,19.4974,VALID,156,VALID,0.267525,
2001-12-28, 02:43:01,VALID,920.101,VALID,0,VALID,96.675,VALID,0,VALID,19.497,VALID,165,VALID,0.323134,
2001-12-28, 02:44:01,VALID,920.113,VALID,0,VALID,96.8123,VALID,0,VALID,19.493,VALID,173,VALID,0.3227,
2001-12-28, 02:45:01,VALID,920.137,VALID,0,VALID,96.9255,VALID,-0.0169808,VALID,19.4999,VALID,173,VALID,0.086128,
2001-12-28, 02:46:01,VALID,920.137,VALID,0,VALID,96.9535,VALID,0,VALID,19.4999,VALID,238,VALID,0.521748,
2001-12-28, 02:47:01,VALID,920.152,VALID,0,VALID,96.6559,VALID,0,VALID,19.4647,VALID,240,VALID,0.384457,
2001-12-28, 02:48:01,VALID,920.161,VALID,0,VALID,96.7678,VALID,0,VALID,19.4644,VALID,238,VALID,0.150905,
2001-12-28, 02:49:01,VALID,920.157,VALID,0,VALID,96.8645,VALID,0,VALID,19.4577,VALID,236,VALID,0.0102896,
2001-12-28, 02:50:01,VALID,920.162,VALID,0,VALID,96.9522,VALID,0,VALID,19.4674,VALID,234,VALID,0,
2001-12-28, 02:51:01,VALID,920.159,VALID,0.2,VALID,97.0565,VALID,-0.0169808,VALID,19.484,VALID,234,VALID,0,
2001-12-28, 02:52:01,VALID,920.192,VALID,0,VALID,97.1722,VALID,0,VALID,19.4935,VALID,153,VALID,0,
2001-12-28, 02:53:01,VALID,920.209,VALID,0,VALID,97.1442,VALID,-0.0169808,VALID,19.4835,VALID,111,VALID,0.0903716,
2001-12-28, 02:54:01,VALID,920.233,VALID,0,VALID,97.1989,VALID,-0.0169808,VALID,19.4582,VALID,107,VALID,0.917188,
2001-12-28, 02:55:01,VALID,920.25,VALID,0,VALID,97.3998,VALID,-0.0339617,VALID,19.4284,VALID,114,VALID,1.00555,
2001-12-28, 02:56:01,VALID,920.266,VALID,0,VALID,97.5995,VALID,0,VALID,19.4194,VALID,120,VALID,0.58277,
2001-12-28, 02:57:01,VALID,920.275,VALID,0,VALID,97.7749,VALID,-0.0169808,VALID,19.4135,VALID,122,VALID,0.660156,
2001-12-28, 02:58:00,VALID,920.293,VALID,0,VALID,97.8818,VALID,-0.0339617,VALID,19.3904,VALID,75,VALID,0.367821,
2001-12-28, 02:59:00,VALID,920.279,VALID,0.2,VALID,97.9708,VALID,-0.0169808,VALID,19.3772,VALID,97,VALID,0.342969,
2001-12-28, 03:00:00,VALID,920.28,VALID,0,VALID,98.0102,VALID,-0.0339617,VALID,19.3608,VALID,114,VALID,0.473684,
2001-12-28, 03:01:00,VALID,920.28,VALID,0,VALID,98.0801,VALID,-0.0169808,VALID,19.3541,VALID,125,VALID,0.299913,
2001-12-28, 03:02:00,VALID,920.272,VALID,0,VALID,98.1933,VALID,-0.0169808,VALID,19.3677,VALID,138,VALID,0.364865,
2001-12-28, 03:03:00,VALID,920.27,VALID,0,VALID,98.2518,VALID,-0.0679233,VALID,19.3807,VALID,145,VALID,0.450591,
2001-12-28, 03:04:00,VALID,920.254,VALID,0.2,VALID,98.2543,VALID,-0.0169808,VALID,19.3804,VALID,154,VALID,0.51034,
2001-12-28, 03:05:00,VALID,920.256,VALID,0,VALID,98.2658,VALID,0,VALID,19.3774,VALID,151,VALID,0.583789,
2001-12-28, 03:06:00,VALID,920.256,VALID,0,VALID,98.2798,VALID,0.0339617,VALID,19.3673,VALID,144,VALID,0.580128,
2001-12-28, 03:07:00,VALID,920.243,VALID,0,VALID,98.2747,VALID,0.101885,VALID,19.3501,VALID,141,VALID,0.871711,
2001-12-28, 03:08:00,VALID,920.235,VALID,0.2,VALID,98.3167,VALID,0.0849042,VALID,19.3407,VALID,140,VALID,0.824219,
2001-12-28, 03:09:00,VALID,920.219,VALID,0,VALID,98.3675,VALID,0.0679233,VALID,19.3375,VALID,149,VALID,0.516797,
2001-12-28, 03:10:00,VALID,920.199,VALID,0.2,VALID,98.412,VALID,0.0849042,VALID,19.3278,VALID,146,VALID,1.0662,
2001-12-28, 03:11:00,VALID,920.183,VALID,0,VALID,98.4247,VALID,0.101885,VALID,19.3178,VALID,152,VALID,1.11595,
2001-12-28, 03:12:00,VALID,920.168,VALID,0,VALID,98.4909,VALID,0.0679233,VALID,19.3149,VALID,171,VALID,0.881968,
2001-12-28, 03:13:00,VALID,920.16,VALID,0,VALID,98.5277,VALID,0.0849042,VALID,19.3052,VALID,170,VALID,0.608507,
2001-12-28, 03:14:00,VALID,920.135,VALID,0.2,VALID,98.5824,VALID,0.0849042,VALID,19.3052,VALID,171,VALID,0.452257,
2001-12-28, 03:15:00,VALID,920.103,VALID,0,VALID,98.6218,VALID,0.101885,VALID,19.2952,VALID,168,VALID,0.378239,
2001-12-28, 03:16:00,VALID,920.084,VALID,0,VALID,98.6663,VALID,0.101885,VALID,19.2952,VALID,152,VALID,0.594383,
2001-12-28, 03:17:00,VALID,920.068,VALID,0,VALID,98.6892,VALID,0.0849042,VALID,19.2918,VALID,149,VALID,0.609375,
2001-12-28, 03:18:00,VALID,920.052,VALID,0,VALID,98.7159,VALID,0.0679233,VALID,19.2955,VALID,145,VALID,0.38384,
2001-12-28, 03:19:00,VALID,920.042,VALID,0.2,VALID,98.7617,VALID,0.101885,VALID,19.292,VALID,143,VALID,0.376715,
2001-12-28, 03:20:00,VALID,920.021,VALID,0,VALID,98.7477,VALID,0.101885,VALID,19.2791,VALID,133,VALID,0.505962,
2001-12-28, 03:21:00,VALID,920.007,VALID,0,VALID,98.7757,VALID,0.0509425,VALID,19.2733,VALID,140,VALID,0.542558,
2001-12-28, 03:22:00,VALID,919.989,VALID,0,VALID,98.7744,VALID,-0.0169808,VALID,19.2746,VALID,149,VALID,0.639974,
2001-12-28, 03:23:00,VALID,919.987,VALID,0.2,VALID,98.8049,VALID,0,VALID,19.2549,VALID,149,VALID,0.311444,
2001-12-28, 03:24:00,VALID,919.969,VALID,0,VALID,98.8456,VALID,-0.0509425,VALID,19.2614,VALID,149,VALID,0.273661,
2001-12-28, 03:25:00,VALID,919.952,VALID,0,VALID,98.8469,VALID,0,VALID,19.2649,VALID,151,VALID,0.332442,
2001-12-28, 03:26:00,VALID,919.952,VALID,0,VALID,98.8596,VALID,0,VALID,19.2515,VALID,161,VALID,0.413007,
2001-12-28, 03:27:00,VALID,919.948,VALID,0.2,VALID,98.8673,VALID,0,VALID,19.2549,VALID,160,VALID,0.453947,
2001-12-28, 03:28:00,VALID,919.943,VALID,0,VALID,98.852,VALID,-0.0169808,VALID,19.2482,VALID,163,VALID,0.425253,
2001-12-28, 03:29:00,VALID,919.938,VALID,0,VALID,98.8723,VALID,-0.0169808,VALID,19.2291,VALID,135,VALID,0.384766,
2001-12-28, 03:30:00,VALID,919.914,VALID,0,VALID,98.9003,VALID,-0.0169808,VALID,19.2296,VALID,135,VALID,0.129317,
2001-12-28, 03:31:00,VALID,919.909,VALID,0.2,VALID,98.9397,VALID,-0.0169808,VALID,19.2423,VALID,135,VALID,0,
2001-12-28, 03:32:00,VALID,919.901,VALID,0,VALID,98.9563,VALID,-0.0339617,VALID,19.2654,VALID,153,VALID,0.335938,
2001-12-28, 03:33:00,VALID,919.878,VALID,0,VALID,98.9486,VALID,-0.0169808,VALID,19.2517,VALID,156,VALID,0.3731,
2001-12-28, 03:34:00,VALID,919.865,VALID,0,VALID,98.9321,VALID,0,VALID,19.2524,VALID,147,VALID,0.399127,